Tavèrnoles





Hora UTC 16:15
Temperatura 24.6 ºC
Humitat 62.0 %
Pressió 1016.5 hPa
Pluja 0.0 mm
Velocitat vent 1.6 km/h
Direcció vent NNE
Radiació solar 216.0 W/m²

Dades diàries 2019-09-20



Hora UTC (hivern +1h; estiu +2h)
Temperatura (ºC) Humitat (%) Pressió (hPa) Velocitat vent (km/h) Precipitació (mm) Radiació solar (W/m²)
Hora UTC Aire Humitat Pressió Vel. Dir. Vel. Max Dir. Intent. màx 5 min. Rad. Sol.
00:05 14.4 96.0 1018.9 0.0 SSE 0.0 0.0 0.0
00:10 14.4 96.0 1018.8 0.0 SSE 1.6 0.0 0.0
00:15 14.4 96.0 1018.8 0.0 SSE 0.0 0.0 0.0
00:20 14.4 96.0 1018.9 0.0 SSE 0.0 0.0 0.0
00:25 14.4 97.0 1018.9 0.0 SSE 0.0 0.0 0.0
00:30 14.5 97.0 1018.9 0.0 SSE 1.6 0.0 0.0
00:35 14.6 97.0 1018.8 0.0 SSE 1.6 0.0 0.0
00:40 14.6 97.0 1018.8 0.0 SSE 0.0 0.0 0.0
00:45 14.6 97.0 1018.8 0.0 SSE 0.0 0.0 0.0
00:50 14.6 97.0 1018.8 0.0 SSE 0.0 0.0 0.0
00:55 14.7 96.0 1018.9 0.0 SSE 0.0 0.0 0.0
01:00 14.7 96.0 1018.9 0.0 SSE 0.0 0.0 0.0
01:05 14.7 96.0 1018.8 0.0 SSE 0.0 0.0 0.0
01:10 14.7 96.0 1018.8 0.0 SSE 0.0 0.0 0.0
01:15 14.8 96.0 1018.8 0.0 SSE 0.0 0.0 0.0
01:20 14.8 96.0 1018.8 0.0 SSE 0.0 0.0 0.0
01:25 14.8 96.0 1018.8 0.0 SSE 0.0 0.0 0.0
01:30 14.8 96.0 1018.8 0.0 SSE 0.0 0.0 0.0
01:35 14.8 96.0 1018.8 0.0 SSE 0.0 0.0 0.0
01:40 14.8 97.0 1018.7 0.0 SSE 0.0 0.0 0.0
01:45 14.9 97.0 1018.7 0.0 SSE 0.0 0.0 0.0
01:50 14.9 97.0 1018.6 0.0 SSE 0.0 0.0 0.0
01:55 14.9 97.0 1018.6 0.0 SSE 0.0 0.0 0.0
02:00 14.9 97.0 1018.6 0.0 SSE 0.0 0.0 0.0
02:05 15.0 97.0 1018.6 0.0 SSE 0.0 0.0 0.0
02:10 15.1 97.0 1018.6 0.0 SSE 0.0 0.0 0.0
02:15 15.1 97.0 1018.6 0.0 SSE 0.0 0.0 0.0
02:20 15.0 97.0 1018.6 0.0 SSE 0.0 0.0 0.0
02:25 15.0 97.0 1018.5 0.0 SSE 0.0 0.0 0.0
02:30 14.9 97.0 1018.5 0.0 SSE 0.0 0.0 0.0
02:35 14.9 97.0 1018.5 0.0 SSE 0.0 0.0 0.0
02:40 14.9 97.0 1018.5 0.0 SSE 0.0 0.0 0.0
02:45 14.9 97.0 1018.5 0.0 SSE 0.0 0.0 0.0
02:50 14.9 97.0 1018.4 0.0 SSE 0.0 0.0 0.0
02:55 14.9 97.0 1018.5 0.0 SSE 0.0 0.0 0.0
03:00 14.9 97.0 1018.4 0.0 SSE 0.0 0.0 0.0
03:05 14.9 97.0 1018.4 0.0 SSE 0.0 0.0 0.0
03:10 14.9 97.0 1018.4 0.0 SSE 0.0 0.0 0.0
03:15 14.8 97.0 1018.3 0.0 SSE 0.0 0.0 0.0
03:20 14.8 97.0 1018.2 0.0 SSE 0.0 0.0 0.0
03:25 14.8 97.0 1018.2 0.0 SSE 0.0 0.0 0.0
03:30 14.8 97.0 1018.1 0.0 SSE 0.0 0.0 0.0
03:35 14.8 97.0 1018.2 0.0 SSE 0.0 0.0 0.0
03:40 14.7 97.0 1018.2 0.0 SSE 0.0 0.0 0.0
03:45 14.7 97.0 1018.4 0.0 SSE 0.0 0.0 0.0
03:50 14.7 97.0 1018.3 0.0 SSE 0.0 0.0 0.0
03:55 14.7 97.0 1018.3 0.0 SSE 3.2 0.0 0.0
04:00 14.7 97.0 1018.4 0.0 SSE 3.2 0.0 0.0
04:05 14.6 97.0 1018.4 0.0 SSE 0.0 0.0 0.0
04:10 14.6 97.0 1018.3 0.0 SSE 0.0 0.0 0.0
04:15 14.6 97.0 1018.3 0.0 SSE 0.0 0.0 0.0
04:20 14.5 97.0 1018.2 0.0 SSE 0.0 0.0 0.0
04:25 14.4 97.0 1018.3 0.0 SSE 1.6 0.0 0.0
04:30 14.4 97.0 1018.3 0.0 SSE 1.6 0.0 0.0
04:35 14.4 97.0 1018.3 0.0 SSE 0.0 0.0 0.0
04:40 14.5 97.0 1018.3 0.0 SSE 0.0 0.0 0.0
04:45 14.5 97.0 1018.4 0.0 SSE 0.0 0.0 0.0
04:50 14.5 97.0 1018.4 0.0 SSE 1.6 0.0 0.0
04:55 14.5 97.0 1018.4 0.0 SSE 1.6 0.0 0.0
05:00 14.6 97.0 1018.4 0.0 SSE 0.0 0.0 0.0
05:05 14.6 97.0 1018.4 0.0 SSE 0.0 0.0 0.0
05:10 14.6 97.0 1018.3 0.0 SSE 0.0 0.0 0.0
05:15 14.5 97.0 1018.4 0.0 SSE 0.0 0.0 0.0
05:20 14.5 97.0 1018.5 0.0 SSE 0.0 0.0 0.0
05:25 14.5 97.0 1018.5 0.0 SSE 0.0 0.0 0.0
05:30 14.5 97.0 1018.5 0.0 SSE 0.0 0.0 0.0
05:35 14.6 97.0 1018.5 0.0 SSE 0.0 0.0 0.0
05:40 14.6 97.0 1018.4 0.0 SSE 0.0 0.0 0.0
05:45 14.7 97.0 1018.5 0.0 SSE 0.0 0.0 5.0
05:50 14.7 97.0 1018.4 0.0 SSE 0.0 0.0 7.0
05:55 14.8 97.0 1018.4 0.0 SSE 0.0 0.0 9.0
06:00 14.8 97.0 1018.6 0.0 SSE 0.0 0.0 9.0
06:05 14.9 97.0 1018.5 0.0 SSE 0.0 0.0 11.0
06:10 14.9 97.0 1018.5 0.0 SSE 0.0 0.0 14.0
06:15 14.9 97.0 1018.5 0.0 SSE 0.0 0.0 18.0
06:20 15.0 97.0 1018.6 0.0 SSE 0.0 0.0 25.0
06:25 15.1 97.0 1018.7 0.0 SSE 0.0 0.0 26.0
06:30 15.1 97.0 1018.8 0.0 SSE 0.0 0.0 32.0
06:35 15.1 97.0 1018.8 0.0 SSE 0.0 0.0 32.0
06:40 15.1 97.0 1018.8 0.0 SSE 0.0 0.0 47.0
06:45 15.1 97.0 1018.9 0.0 SSE 0.0 0.0 46.0
06:50 15.2 97.0 1018.9 0.0 SSE 0.0 0.0 53.0
06:55 15.1 97.0 1019.0 0.0 SSE 0.0 0.0 51.0
07:00 15.1 97.0 1019.0 0.0 SSE 0.0 0.0 60.0
07:05 15.2 97.0 1019.1 0.0 SSE 0.0 0.0 70.0
07:10 15.2 97.0 1019.2 0.0 SSE 0.0 0.0 70.0
07:15 15.3 97.0 1019.3 0.0 SSE 1.6 0.0 77.0
07:20 15.2 97.0 1019.4 0.0 SSE 4.8 0.0 70.0
07:25 15.2 97.0 1019.4 0.0 SSE 4.8 0.0 91.0
07:30 15.3 97.0 1019.4 0.0 SSE 4.8 0.0 109.0
07:35 15.4 97.0 1019.6 0.0 SSE 4.8 0.0 109.0
07:40 15.5 97.0 1019.6 0.0 SSE 1.6 0.0 116.0
07:45 15.6 97.0 1019.6 0.0 SSE 1.6 0.0 127.0
07:50 15.6 97.0 1019.6 0.0 SSE 1.6 0.0 125.0
07:55 15.6 97.0 1019.6 0.0 SSE 0.0 0.0 125.0
08:00 15.7 97.0 1019.8 0.0 SSE 0.0 0.0 118.0
08:05 15.7 97.0 1019.7 0.0 SSE 0.0 0.0 142.0
08:10 15.7 97.0 1019.7 0.0 SSE 0.0 0.0 155.0
08:15 15.7 97.0 1019.8 0.0 SSE 0.0 0.0 192.0
08:20 15.7 97.0 1019.9 0.0 SSE 0.0 0.0 232.0
08:25 15.9 97.0 1019.8 0.0 SSE 0.0 0.0 272.0
08:30 16.1 97.0 1019.9 0.0 SSE 3.2 0.0 253.0
08:35 16.1 97.0 1019.8 0.0 SSE 3.2 0.0 202.0
08:40 16.0 97.0 1019.8 0.0 SSE 1.6 0.0 258.0
08:45 16.2 97.0 1019.9 0.0 SSE 1.6 0.0 232.0
08:50 16.4 97.0 1019.8 0.0 SSE 0.0 0.0 183.0
08:55 16.6 97.0 1019.8 0.0 SSE 0.0 0.0 253.0
09:00 16.6 97.0 1019.8 0.0 SSE 0.0 0.0 355.0
09:05 16.6 97.0 1019.7 0.0 SSE 0.0 0.0 445.0
09:10 16.9 97.0 1019.8 0.0 SSE 0.0 0.0 504.0
09:15 17.2 97.0 1019.7 0.0 SSE 0.0 0.0 513.0
09:20 17.3 97.0 1019.6 0.0 SSE 0.0 0.0 512.0
09:25 17.4 97.0 1019.6 0.0 SSE 0.0 0.0 506.0
09:30 17.7 97.0 1019.5 0.0 SSE 0.0 0.0 515.0
09:35 17.7 97.0 1019.5 0.0 SSE 0.0 0.0 508.0
09:40 17.9 96.0 1019.5 0.0 NNE 0.0 0.0 520.0
09:45 18.3 96.0 1019.6 0.0 NNE 0.0 0.0 533.0
09:50 18.7 95.0 1019.5 0.0 NNE 0.0 0.0 545.0
09:55 19.1 95.0 1019.5 0.0 NNW 0.0 0.0 568.0
10:00 19.3 93.0 1019.4 0.0 NNW 0.0 0.0 626.0
10:05 19.6 92.0 1019.4 0.0 NNW 0.0 0.0 694.0
10:10 19.8 90.0 1019.3 0.0 NNW 0.0 0.0 722.0
10:15 20.1 89.0 1019.2 0.0 NNW 0.0 0.0 531.0
10:20 20.3 86.0 1019.1 0.0 NNW 0.0 0.0 621.0
10:25 20.6 87.0 1019.1 0.0 NW 0.0 0.0 619.0
10:30 20.9 87.0 1019.1 0.0 NW 0.0 0.0 628.0
10:35 21.4 85.0 1019.1 0.0 NNE 0.0 0.0 621.0
10:40 21.6 77.0 1019.1 0.0 N 0.0 0.0 635.0
10:45 21.8 76.0 1018.9 0.0 N 0.0 0.0 628.0
10:50 22.2 75.0 1018.9 0.0 NNW 0.0 0.0 629.0
10:55 22.4 73.0 1018.9 0.0 NNW 4.8 0.0 642.0
11:00 22.8 72.0 1018.8 1.6 N 4.8 0.0 589.0
11:05 22.9 72.0 1018.7 4.8 NW 6.4 0.0 617.0
11:10 23.1 71.0 1018.7 3.2 NW 6.4 0.0 656.0
11:15 23.2 68.0 1018.7 0.0 WNW 6.4 0.0 656.0
11:20 23.4 69.0 1018.7 3.2 N 4.8 0.0 666.0
11:25 23.6 66.0 1018.6 0.0 NNW 6.4 0.0 661.0
11:30 23.7 63.0 1018.5 4.8 NE 6.4 0.0 671.0
11:35 23.8 65.0 1018.5 1.6 NNW 6.4 0.0 671.0
11:40 23.9 62.0 1018.4 4.8 NW 8.0 0.0 668.0
11:45 23.9 62.0 1018.4 6.4 N 9.7 0.0 664.0
11:50 23.8 60.0 1018.3 4.8 N 9.7 0.0 657.0
11:55 23.9 62.0 1018.3 0.0 NW 6.4 0.0 659.0
12:00 24.2 66.0 1018.3 4.8 NW 6.4 0.0 663.0
12:05 24.3 60.0 1018.2 3.2 NW 6.4 0.0 670.0
12:10 24.3 57.0 1018.1 0.0 SSW 8.0 0.0 670.0
12:15 24.4 61.0 1018.0 0.0 NW 8.0 0.0 698.0
12:20 24.3 60.0 1017.9 0.0 N 8.0 0.0 707.0
12:25 24.5 62.0 1017.9 6.4 SSE 9.7 0.0 696.0
12:30 24.6 61.0 1017.8 0.0 SW 9.7 0.0 666.0
12:35 24.8 60.0 1017.7 0.0 NNW 8.0 0.0 654.0
12:40 24.9 60.0 1017.7 0.0 NW 4.8 0.0 671.0
12:45 25.1 58.0 1017.7 0.0 NNE 8.0 0.0 701.0
12:50 25.1 60.0 1017.6 3.2 NW 8.0 0.0 700.0
12:55 25.2 59.0 1017.7 4.8 SSW 8.0 0.0 742.0
13:00 25.3 59.0 1017.6 0.0 NNE 8.0 0.0 772.0
13:05 25.3 60.0 1017.5 4.8 N 8.0 0.0 694.0
13:10 25.1 59.0 1017.5 0.0 N 9.7 0.0 209.0
13:15 24.9 60.0 1017.6 3.2 WNW 9.7 0.0 190.0
13:20 24.7 61.0 1017.5 1.6 NE 9.7 0.0 712.0
13:25 24.8 61.0 1017.4 1.6 N 9.7 0.0 670.0
13:30 24.8 58.0 1017.3 0.0 ESE 9.7 0.0 144.0
13:35 24.6 59.0 1017.3 3.2 S 9.7 0.0 160.0
13:40 24.6 63.0 1017.2 6.4 SSW 9.7 0.0 522.0
13:45 24.8 58.0 1017.2 4.8 SW 9.7 0.0 584.0
13:50 25.1 58.0 1017.1 1.6 SSE 9.7 0.0 573.0
13:55 25.2 57.0 1017.1 3.2 N 11.3 0.0 557.0
14:00 25.2 59.0 1017.1 9.7 NE 14.5 0.0 541.0
14:05 25.2 56.0 1017.1 1.6 S 14.5 0.0 540.0
14:10 25.5 60.0 1016.9 0.0 SSW 12.9 0.0 510.0
14:15 25.7 55.0 1016.9 0.0 S 9.7 0.0 475.0
14:20 25.9 54.0 1017.0 0.0 SSE 9.7 0.0 455.0
14:25 25.8 56.0 1016.9 3.2 SSE 11.3 0.0 494.0
14:30 25.8 57.0 1016.8 0.0 E 17.7 0.0 485.0
14:35 25.7 55.0 1016.7 1.6 NW 17.7 0.0 462.0
14:40 25.7 58.0 1016.6 4.8 SSE 8.0 0.0 468.0
14:45 25.9 55.0 1016.5 0.0 WNW 8.0 0.0 457.0
14:50 26.0 57.0 1016.3 3.2 S 8.0 0.0 443.0
14:55 25.8 55.0 1016.3 0.0 S 8.0 0.0 425.0
15:00 25.7 56.0 1016.3 0.0 S 8.0 0.0 285.0
15:05 25.8 58.0 1016.3 0.0 SSE 4.8 0.0 399.0
15:10 26.0 54.0 1016.3 3.2 SE 8.0 0.0 392.0
15:15 26.1 57.0 1016.4 1.6 S 8.0 0.0 385.0
15:20 25.8 56.0 1016.2 0.0 SW 6.4 0.0 369.0
15:25 25.7 56.0 1016.3 1.6 S 6.4 0.0 343.0
15:30 25.6 57.0 1016.4 0.0 WSW 6.4 0.0 323.0
15:35 25.6 58.0 1016.4 4.8 SSE 8.0 0.0 327.0
15:40 25.5 59.0 1016.3 1.6 S 11.3 0.0 304.0
15:45 25.6 59.0 1016.4 0.0 SSW 11.3 0.0 297.0
15:50 25.4 61.0 1016.4 4.8 S 8.0 0.0 274.0
15:55 25.4 58.0 1016.5 0.0 SSW 8.0 0.0 253.0
16:00 25.2 59.0 1016.5 1.6 S 9.7 0.0 239.0
16:05 24.9 60.0 1016.5 4.8 S 8.0 0.0 237.0
16:10 24.7 62.0 1016.6 0.0 SE 8.0 0.0 197.0
16:15 24.6 62.0 1016.5 1.6 NNE 11.3 0.0 216.0
Màxima 26.1 97.0 1019.9 9.7 NE 17.7 0.0 772.0
Mínima 14.2 54.0 1016.2
Total 0.0